Tracking 29495 objects as of 7-Sep-2024
HD Live streaming from Space Station
objects crossing your sky now

COSMOS 1249 COOLANT

Track COSMOS 1249 COOLANT now!
10-day predictions


NORAD ID: 26508
Int'l Code: 1981-021K
Perigee: 907.3 km
Apogee: 951.7 km
Inclination: 65.0 °
Period: 103.5 minutes
Semi major axis: 7300 km
RCS: 0.0061 m2 (small)
Launch date: March 5, 1981
Source: Commonwealth of Independent States (former USSR) (CIS)
Launch site: TYURATAM MISSILE AND SPACE COMPLEX (TTMTR)

Note: This is SATELLITE DEBRIS
Your satellite tracking list
Your tracking list is empty




NASA's NSSDC Master Catalog

Two Line Element Set (TLE):
1 26508U 81021K   24250.52028998  .00000826  00000-0  71686-3 0  9996
2 26508  64.9651 206.6488 0030419  85.9713  24.6024 13.91792232568374
Source of the keplerian elements: AFSPC